This demonstration page uses our WeatherBlox Daily Observations layout. Learn more.

Left ArrowRight Arrow

38.20091, -84.87328

Hourly Observations for June 18, 2021

Temp ( °F °C ) Dew Point ( °F °C ) Humidity (%) Winds ( mph kmh ) Pressure ( in mb ) Visibility ( mi km ) Precip ( " mm )
12:53 am 00:53 Clear 65 18.3 60 15.6 84 84 Calm 30.01 1016 10 16 0.00 0.00
1:53 am 01:53 Clear 66 18.9 60 15.6 81 81 S 3 6 29.98 1015 10 16 0.00 0.00
2:53 am 02:53 Clear 67 19.4 59 15 76 76 Calm 29.98 1015 10 16 0.00 0.00
3:53 am 03:53 Clear 65 18.3 59 15 81 81 SSE 3 6 29.98 1015 10 16 0.00 0.00
4:53 am 04:53 Clear 67 19.4 59 15 76 76 S 5 7 29.95 1014 10 16 0.00 0.00
5:53 am 05:53 Clear 68 20 59 15 73 73 S 7 11 29.94 1014 10 16 0.00 0.00
6:53 am 06:53 Sunny 68 20 59 15 73 73 S 7 11 29.97 1015 10 16 0.00 0.00
7:53 am 07:53 Sunny 71 21.7 61 16.1 71 71 S 9 15 29.97 1015 10 16 0.00 0.00
8:53 am 08:53 Partly Cloudy 75 23.9 64 17.8 69 69 SSW 12 19 29.97 1015 10 16 0.00 0.00
9:53 am 09:53 Sunny 79 26.1 66 18.9 65 65 SW 15 24 29.97 1015 10 16 0.00 0.00
10:53 am 10:53 Sunny 82 27.8 67 19.4 60 60 WSW 14 22 29.99 1016 10 16 0.00 0.00
11:53 am 11:53 Sunny 86 30 68 20 55 55 SW 14 22 29.97 1015 10 16 0.00 0.00
12:53 pm 12:53 Mostly Sunny 88 31.1 69 20.6 54 54 SSW 17 28 29.96 1015 10 16 0.00 0.00
1:53 pm 13:53 Mostly Cloudy 87 30.6 70 21.1 57 57 SSW 12 19 29.93 1014 10 16 0.00 0.00
2:53 pm 14:53 Mostly Sunny 89 31.7 70 21.1 53 53 SSW 16 26 29.92 1013 10 16 0.00 0.00
3:53 pm 15:53 Mostly Cloudy 90 32.2 70 21.1 52 52 SW 13 20 29.91 1013 10 16 0.00 0.00
4:53 pm 16:53 Mostly Sunny 90 32.2 70 21.1 52 52 SW 14 22 29.89 1012 10 16 0.00 0.00
5:53 pm 17:53 Partly Cloudy 89 31.7 69 20.6 52 52 SSW 18 30 29.86 1011 10 16 0.00 0.00
6:53 pm 18:53 Sunny 88 31.1 69 20.6 54 54 SSW 18 30 29.85 1011 10 16 0.00 0.00
7:53 pm 19:53 Sunny 86 30 68 20 55 55 SSW 16 26 29.84 1010 10 16 0.00 0.00
8:53 pm 20:53 Mostly Sunny 84 28.9 68 20 59 59 WSW 6 9 29.89 1012 10 16 0.00 0.00
9:53 pm 21:53 Cloudy 83 28.3 68 20 61 61 SW 3 6 29.92 1013 10 16 0.00 0.00
10:53 pm 22:53 Cloudy 81 27.2 70 21.1 69 69 E 5 7 29.96 1014 10 16 0.00 0.00
11:53 pm 23:53 Cloudy 78 25.6 64 17.8 62 62 ENE 3 6 29.97 1015 10 16 0.00 0.00

Powered by AerisWeather